Location: Roanoke
(37.2710°N, 79.9420°W)
Time: 17:20:15
(UTC-04:00)

Cosmos 1441 Rocket - Visible Passes

Search period start: 17 August 2017 00:00
Search period end: 27 August 2017 00:00
Orbit: 498 x 544 km, 81.1° (Epoch: 16 August)

Date Brightness Start Highest point End Pass type
(mag) Time Alt. Az. Time Alt. Az. Time Alt. Az.
17 Aug 3.1 20:45:33 10° N 20:49:17 72° E 20:53:00 10° SSE visible
18 Aug 3.2 20:32:09 10° N 20:35:51 61° E 20:39:32 10° SSE visible
21 Aug 6.5 21:30:14 10° WNW 21:31:04 11° W 21:31:53 10° W visible
22 Aug 6.4 21:16:05 10° WNW 21:17:41 12° W 21:19:16 10° WSW visible
23 Aug 6.3 21:02:15 10° NW 21:04:18 14° W 21:06:21 10° WSW visible
24 Aug 6.2 20:48:30 10° NW 20:50:54 16° W 20:53:19 10° SW visible
25 Aug 6.2 20:34:49 10° NW 20:37:30 19° W 20:40:11 10° SW visible
26 Aug 6.1 20:21:11 10° NW 20:24:06 22° W 20:27:01 10° SW visible
